Starlink 4584

operational
NORAD ID: 53571 Int'l Des: 2022-101 Owner: SPXS Country: US Constellation: starlink
LEOCIRCULAR

About Starlink 4584

Description loading...

Live Position

Loading 3D Globe...

Upcoming Passes

Altitude History

Altitude vs Time

uPlot chart will show altitude changes over time

Two-Line Element Set

1 53571U 22101AW 26062.05063280 .00002238 00000-0 15858-3 0 9992
2 53571 53.2167 83.8743 0001235 84.8045 275.3088 15.08857349196133
Epoch: Mar 3, 2026 • Age: 19 hours

Current Status

Altitude 545.4 km
Velocity 7.60 km/s
Sub-Earth Point 53.26°N, 77.62°E
Launch Date Aug 19, 2022
Age 3.5 years
Type internet

Technical Details

Classification Payload
Mass 300.00 kg
Dry Mass 290.00 kg
Total Mass 300.00 kg
Length 0.20 m
Diameter 2.80 m
Span 9.00 m
Shape Box + pan
Manufacturer SPXS
Bus Type Starlink
Phase Status In Orbit
Owner/State SPXS/US

Large Constellations

Loading constellations...